OBJECT D

Satellite information

Favourite Embed

Satellite Type and Status

UNKNOWNIN ORBIT

Key statistics

Satellite OBJECT D at a glance.

Uptime

2287

Days in orbit

Revolutions

≈ 15.7

Per day

Orbit

LEO

Low Earth Orbit

Inclination

45.0

Latest

Satellite identification and parameters

Extended collection of information and parameters for OBJECT D.

Object identification

Identified? True

Debris? False

Object name: OBJECT D

International designator: 2019-032D

Object number (NORAD): 44313

Object ID (CCSDS): 44313

Country: PEOPLES REPUBLIC OF CHINA (PRC)

Current information (Y/N): Y

RCS size: SMALL

Orbital parameters

Period: 91.773 minutes

Inclination: 44.9861 deg

SMA: 6739.642 km

Apoapsis: 370.732 km

Periapsis: 352.282 km

RAAN: 10.6163 deg

Eccentricy: 0.00136881

Argument of periapsis: 289.0491 deg

Mean anomaly: 70.8925 deg

Mean motion: 15.69088749 rev/day

Mean motion (dot): 0.00141043 rev/day2

B* drag term: 0.0011632081 1/REarth

Two-line elements (TLE)

Creation date: Sept. 8, 2025, 3:16 a.m.

Reference frame: TEME

Reference center: EARTH

Epoch: Sept. 7, 2025, 6:13 p.m. UTC

TLE line 0: 0 OBJECT D

TLE line 1: 1 44313U 19032D 25250.75909434 .00141043 00000-0 11632-2 0 9993

TLE line 2: 2 44313 44.9861 10.6163 0013688 289.0491 70.8925 15.69088749345768

Live tracking on map

Real-time ground track for satellite OBJECT D.

In-orbit conjunctions

There are no conjunctions computed for OBJECT D, at the moment. Check back to stay up to date, as we update our databases every day.

Go to all conjunctions

Associated space launch

The first sea launch of Long March 11 rocket. It carries 7 satellites, which include a new high-resolution Earth observation satellite Jilin-1 and several test satellites, verifying such technologies as sea surface wind measuring and satellite interlink communication.

OBJECT D was lifted into orbit during the mission ‘Long March 11 | Jilin-1 & others’, on board a Long March 11 space rocket.

The launch took place on June 5, 2019, 4:06 a.m. from Tai Rui mobile launch platform.

For more information about the launch, click the button.

Launch to space Long March 11 | Jilin-1 & others
Long March 11 | Jilin-1 & others

Agency: N/A

Status: Launch Successful

Launch date: June 5, 2019, 4:06 a.m. UTC

Rocket: Long March 11

Launch pad: Tai Rui mobile launch platform

Location: Sea Launch

...

Latest news about this satellite

There are no fresh news available about this satellite. Check back as we update our databases every day.


Newsletter sign-up

Weekly statistics, charts and insights to help you stay on top of the space industry.